[Date Prev][Date Next][Thread Prev][Thread Next] - [Date Index][Thread Index][Author Index]

2 Line ISS Keps 11-6



ISS
1 25544U 98067A   04311.44517757  .00028007  00000-0  22829-3 0   814
2 25544  51.6363 319.8579 0008361 324.8557 123.4148 15.70360928340663
----
Via the sarex mailing list at AMSAT.ORG courtesy of AMSAT-NA.
To unsubscribe, send "unsubscribe sarex" to Majordomo@amsat.org



AMSAT Top AMSAT Home